Sign In / Sign Up
 
 
Ocean Inside Regatta. Leg 3. 17/12 - 23/12



Race Date (UTC) # I place II place III place Track
Race1399 2018-12-18 22:12:11 8 B_dog rs Obelix
Race1398 2018-12-18 22:11:13 8 jahon Twist Sambaqui man
Race1397 2018-12-18 22:09:47 8 Distraction Felipe StoneAge Melges24
Race1396 2018-12-18 22:08:24 8 BeteNoir Nik El Lemondor
Race1395 2018-12-18 22:07:17 8 Ar PempO youppi03:50:40 Jamile
Race1394 2018-12-18 22:06:08 8 galerna Vistona THE EQUALIZER B_dog
Race1393 2018-12-18 22:04:38 8 Twist rossa dudu
Race1392 2018-12-18 22:04:00 8 StoneAge Melges24 Globus Alb_YCBE
Race1391 2018-12-18 22:02:51 8 cricola El Lemondor sk
Race1390 2018-12-18 22:01:44 8 Jamile Y.C. Tempio Pausania Ventus
Race1389 2018-12-18 22:00:40 8 rs EIGER youppi03:50:40
Race1388 2018-12-18 21:57:54 8 yadolu skyandsea Ar PempO
Race1387 2018-12-18 21:56:59 8 Terraphobia Ceramco NZ Twist
Race1386 2018-12-18 21:56:19 8 _---_ El Lemondor Y.C. Tempio Pausania
Race1385 2018-12-18 21:55:25 8 No Frigin’ in the Rigin’ EIGER Monas
Race1384 2018-12-18 21:54:48 8 youppi03:50:40 Ar PempO BeteNoir
Race1383 2018-12-18 21:53:57 8 RCLaser27 between the sheets Fabio
Race1382 2018-12-18 21:53:05 3 EIGER alfaya Fast times
Race1381 2018-12-18 21:51:35 8 Nik yadolu SicilyKayak
Race1380 2018-12-18 21:51:00 8 cricola BB Vistona THE EQUALIZER
Race1379 2018-12-18 21:50:09 8 100+ wins Ceramco NZ suka
Race1378 2018-12-18 21:49:16 8 sk _---_ Momotombo
Race1377 2018-12-18 21:49:00 8 BeteNoir youppi03:50:40 WSandwich
Race1376 2018-12-18 21:47:57 8 RCLaser27 PlatuPORGY NYYC
Race1375 2018-12-18 21:46:52 8 Globus Munnezz STEX
Race1374 2018-12-18 21:46:01 8 Nik yadolu PorcoDIO
Race1373 2018-12-18 21:44:20 7 cales pisa56 pere021
Race1372 2018-12-18 21:43:26 8 Momotombo suka Ceramco NZ
Race1371 2018-12-18 21:42:20 8 sk RCLaser27 ONO
Race1370 2018-12-18 21:41:12 8 Muritai _---_ Ar PempO
Race1369 2018-12-18 21:40:33 8 Albarone Globus Nik
Race1368 2018-12-18 21:38:49 8 0 Tituli yadolu '64
Race1367 2018-12-18 21:38:15 8 Sambaqui man pisa56 cales
Race1366 2018-12-18 21:37:42 8 Felipe suka KCRio
Race1365 2018-12-18 21:36:31 2 NORBY J24 yadolu
Race1364 2018-12-18 21:35:40 8 Malvinas Wilburt PlatuPORGY
Race1363 2018-12-18 21:33:44 8 Munnezz Nik _---_
Race1362 2018-12-18 21:32:49 8 Joyita V Muritai jahon
Race1361 2018-12-18 21:31:42 8 El Lemondor Sadalsuck Sambaqui man
Race1360 2018-12-18 21:31:20 8 Albarone PRADA45 sk
Race1359 2018-12-18 21:30:42 8 pisa56 Twist Fabio
Race1358 2018-12-18 21:29:24 8 Felipe yadolu 100+ wins
Race1357 2018-12-18 21:27:56 8 Munnezz PorcoDIO Nik
Race1356 2018-12-18 21:26:42 8 Julepe Globus federico
Race1355 2018-12-18 21:26:15 8 Mangusta03:55 BB Sadalsuck
Race1354 2018-12-18 21:25:23 8 Extreme '64 heidi
Race1353 2018-12-18 21:24:44 8 Fabio PamperoMDQ Twist
Race1352 2018-12-18 21:23:11 8 Altair Malvinas pisa56
Race1351 2018-12-18 21:22:15 8 Nik Munnezz _---_
Race1350 2018-12-18 21:20:45 8 marty909 Globus PRADA45
Race1349 2018-12-18 21:20:17 8 Vesper Sadalsuck Mangusta03:55
Race1348 2018-12-18 21:19:36 8 heidi cales tropical
Race1347 2018-12-18 21:17:47 8 Ar PempO ITA 77 Hihihihihi
Race1346 2018-12-18 21:17:14 2 cales BANDEIRA
Race1345 2018-12-18 21:15:37 8 Munnezz ahab007 pisa56
Race1344 2018-12-18 21:15:16 8 '64 Polepole3 Suyai
Race1343 2018-12-18 21:14:25 8 PorcoDIO Jamile Sadalsuck
Race1342 2018-12-18 21:13:50 8 Sambaqui man BB Globus
Race1341 2018-12-18 21:13:12 8 tdd11 heidi RAYO
Race1340 2018-12-18 21:11:39 8 ITA 77 Vistona THE EQUALIZER rossa
Race1339 2018-12-18 21:10:20 8 AltoSail cales gioslay
Race1338 2018-12-18 21:09:38 8 kalb _---_ 100+ wins
Race1337 2018-12-18 21:08:01 8 Mangusta03:55 RC 30 Sadalsuck
Race1336 2018-12-18 21:07:00 8 bolina74 RAYO sk
Race1335 2018-12-18 21:05:55 8 Twist MAGJA Alcor1183
Race1334 2018-12-18 21:04:29 8 ge614 Jamile Ceramco NZ
Race1333 2018-12-18 21:03:38 8 kalb Teo ita 2006 gioslay
Race1332 2018-12-18 21:01:58 8 Mangusta03:55 Sadalsuck pisa56
Race1331 2018-12-18 21:00:28 8 Twist bolina74 BB
Race1330 2018-12-18 20:59:02 8 PorcoDIO JJ Chr98
Race1329 2018-12-18 20:58:14 8 ITA 1848 ge614 Valentina
Race1328 2018-12-18 20:57:33 8 Malvinas kalb Pepei
Race1327 2018-12-18 20:56:00 8 Mangusta03:55 007Z scorch
Race1326 2018-12-18 20:54:18 8 bolina74 BB sk
Race1325 2018-12-18 20:53:35 8 _---_ Feten Zia hydargos
Race1324 2018-12-18 20:52:46 8 Atila 7667 JJ
Race1323 2018-12-18 20:51:40 8 Suyai RAYO Valentina
Race1322 2018-12-18 20:50:55 8 Ar PempO scorch Pepei
Race1321 2018-12-18 20:49:23 8 Mangusta03:55 Momotombo ge614
Race1320 2018-12-18 20:48:25 8 kalb sk Sambaqui man
Race1319 2018-12-18 20:47:32 8 Hihihihihi pisa56 bolina74
Race1318 2018-12-18 20:46:19 8 wkcjkzc _---_ Feten Zia
Race1317 2018-12-18 20:45:26 8 Ar PempO Saphron ESP214341
Race1316 2018-12-18 20:43:37 8 tdd11 scorch Vistona THE EQUALIZER
Race1315 2018-12-18 20:42:16 8 ge614 kalb Sambaqui man
Race1314 2018-12-18 20:41:10 8 _---_ BB pisa56
Race1313 2018-12-18 20:39:32 8 sk jager Hihihihihi
Race1312 2018-12-18 20:38:31 8 Feten Zia Vistona THE EQUALIZER Valentina
Race1311 2018-12-18 20:37:11 7 ge614 DIO crete
Race1310 2018-12-18 20:36:13 8 RCLaser27 Sambaqui man HotTuna!
Race1309 2018-12-18 20:35:36 8 Distraction PorcoDIO Teo ita 2006
Race1308 2018-12-18 20:33:51 8 _---_ Platu Worlds 2020 patán
Race1307 2018-12-18 20:31:35 8 mandy Karmar Vistona THE EQUALIZER
Race1306 2018-12-18 20:30:29 8 ge614 sk DA_BOCA!!
Race1305 2018-12-18 20:29:50 8 pisa56 Vento Levou frida antifa 3.56.90
Race1304 2018-12-18 20:29:22 8 Distraction ahab007 AMMERDA
Race1303 2018-12-18 20:27:47 8 JeanPipit kalb Platu Worlds 2020
Race1302 2018-12-18 20:26:30 8 Ceramco NZ Baraonda ITA 1004 skip
Race1301 2018-12-18 20:25:42 8 RCLaser27 Ar PempO Rodise
Race1300 2018-12-18 20:24:36 8 DA_BOCA!! pec Wilburt